DMSP 5D-2 F13 DEB, 42266

Orbit data source: Space-Track

DMSP 5D-2 F13 DEB, 42266 is space debris in SSO originally from a launch on Fri, 24 Mar 1995 UTC launched from the Air Force Western Test Range (AFWTR). Debris objects in space refer to the collection of defunct objects orbiting the Earth. Examples of debris include non-operational satellites, rocket bodies, and fragments generated from explosions, collisions, or faulty payload assembly.

Loading next visibility...
Identifier
42266, 1995-015GG
Orbit
SSO
Country
Flag of USUS
Related business
Manufacturer
Unknown
Mission
Spacecraft
Bus & Motor
Unknown
Mass
Unknown
Launch date (UTC)
1995-03-24 (31 years ago)
Launch vehicle
Unknown
Launch site
Air Force Western Test Range (AFWTR)
Object type
Payload
Rocket body
Debris
Shape & HBR
Unknown shape, 0.1 m
Radar Cross Section
Medium (>0.1 m² and <1 m²)

Expand to show TLE details & history
Last TLE update: 3 days ago

TLE from 3 days ago
0 DMSP 5D-2 F13 DEB
1 42266U 95015GG  26170.58678390  .00004017  00000-0  10920-2 0  9998
2 42266  98.5829 219.2154 0020014 261.7916  98.1006 14.47962012573977
Epoch: 2026-06-19T14:04Z
TLE epoch observation values (Epoch: 2026-06-19T14:04:58.128Z)
Latitude
-0.00009°
Longitude
100.15959°
Altitude
737.303 km
Speed
7.485 km/s
True Right ascension
14h 36m 51s
True Declination
0° 00' 00"
Sunlit
Object was in full shadow at epoch
Visualization orbit readout
Latitude
Unknown
Longitude
Unknown
Altitude
Unknown
Speed
Unknown
Apparent Right ascension
Unknown
Apparent Declination
Unknown
Sunlit
N/A
Visualization observer readout
Local Sidereal Time
21:42:27
Azimuth
Unknown
Elevation
Unknown
Doppler factor
Unknown
Orbital elements
Apogee altitude
743.653 km
Perigee altitude
715.203 km
Semi-major axis
7,107.565 km
Eccentricity
0.002
Inclination
98.5829°
RAAN
219.2154°
Arg. of periapsis
261.7916°
True anomaly
98.32757°
Mean anomaly
98.1006°
Eccentric anomaly
98.2141°
Mean motion
3.62211 °/min
Orbital period
99.39 mins
BSTAR
0.001092

Documentation

Showing up to 5 results
|